Regional Weather Roundup
Issued by NWS

Home | Current Version | Previous Version | Text Only | Print | Product List | Glossary Off
Versions: 1 2 3 4 5 6 7 8 9 10 11 12 13 14 15 16 17 18 19 20 21 22 23 24 25 26 27 28 29 30 31 32 33 34 35 36 37 38 39 40 41 42 43 44 45 46 47 48 49 50

000
ASUS43 KLOT 011300
RWRIL

ILLINOIS REGIONAL WEATHER ROUNDUP
NATIONAL WEATHER SERVICE CHICAGO/ROMEOVILLE IL
700 AM CST SUN FEB 01 2015

NOTE: "FAIR" INDICATES FEW OR NO CLOUDS BELOW 12,000 FEET WITH NO
SIGNIFICANT WEATHER AND/OR OBSTRUCTIONS TO VISIBILITY.

* THESE STATIONS ARE NOT UNDER NWS QUALITY CONTROL. THEY ALSO MAY NOT
  REPORT WEATHER SUCH AS PRECIPITATION OR FOG.

ILZ001-002-007-009-015-016-024-011400-
NORTHWEST ILLINOIS

CITY           SKY/WX    TMP DP  RH WIND       PRES   REMARKS
MOLINE         LGT SNOW  32  31  96 E12       29.85S VSB 1   WCI  23
STERLING*        N/A    N/A N/A N/A MISG        N/A
$$

ILZ003-004-008-010-011-017-018-011400-
NORTH CENTRAL ILLINOIS

CITY           SKY/WX    TMP DP  RH WIND       PRES   REMARKS
ROCKFORD       LGT SNOW  27  24  89 NE18G28   29.96F VSB 1   WCI  14
$$

ILZ005-006-012>014-019>023-011400-
NORTHEAST ILLINOIS

CITY           SKY/WX    TMP DP  RH WIND       PRES   REMARKS
CHICAGO-OHARE  SNOW      30  29  96 NE16      29.95F VSB 1/2 WCI  19
CHICAGO-MIDWAY LGT SNOW  33  31  92 NE13      29.95F VSB 3/4 WCI  24
AURORA         SNOW      31  28  89 NE20      29.92F VSB 1/2 WCI  19
WAUKEGAN       SNOW      27  26  96 NE20G31   30.01F VSB 1/2 WCI  13
DUPAGE AIRPORT LGT SNOW  31  28  89 NE14      29.93F VSB 1   WCI  21
WHEELING       LGT SNOW  30  28  92 NE13G23   29.99F VSB 3/4 WCI  20
NORTHERLY ISL    N/A     31  30  96 E15         N/A  WCI  20
$$

LMZ740>746-011400-
SOUTHERN LAKE MICHIGAN

STATION/POSITION SKY/WX   TEMP    WIND        PRES    VSBY  WAVE
                          AIR SEA DIR/SP/G                  HT/PER
                          (F)     (DEG/KT/KT) (MB)    (MI)  (FT/S)
WAUKEGAN HARBOR            28      60/ 26/ 35   N/A
HARRISON CRIB              31      80/ 18/ 20   N/A
BURNHAM HARBOR             31      80/ 12/ 14   N/A
CALUMET HARBOR             31      70/  9/ 12   N/A
MICHIGAN CITY              30      80/  6/  8   N/A
$$

ILZ025>027-034>036-040-047-049-050-058-095>099-011400-
WEST-CENTRAL ILLINOIS

CITY           SKY/WX    TMP DP  RH WIND       PRES   REMARKS
QUINCY         LGT SNOW  33  31  92 SE9       29.76F FOG     WCI  25
$$

ILZ028>032-037-038-041>044-048-051>054-059>061-011400-
CENTRAL ILLINOIS

CITY           SKY/WX    TMP DP  RH WIND       PRES   REMARKS
DECATUR        LGT SNOW  33  31  92 SE15      29.84F VSB 1   WCI  23
PEORIA         SNOW      34  32  92 E9        29.83F VSB 1/2 WCI  27
SPRINGFIELD    LGT SNOW  33  32  96 SE12      29.81F FOG     WCI  24
TAYLORVILLE    NOT AVBL
$$

ILZ033-039-045-046-055>057-062-063-011400-
EAST-CENTRAL ILLINOIS

CITY           SKY/WX    TMP DP  RH WIND       PRES   REMARKS
CHAMPAIGN      SNOW      33  31  92 SE15      29.88F VSB 1/2 WCI  23
MATTOON        LGT SNOW  32  30  92 SE13      29.87F VSB 3/4 WCI  22
$$

ILZ079-100>102-011400-
SOUTHWEST ILLINOIS

CITY           SKY/WX    TMP DP  RH WIND       PRES   REMARKS
ALTON          CLOUDY    34  32  93 SE14      29.80F WCI  24
BELLEVILLE     LGT RAIN  35  34  99 E8        29.81F FOG     WCI  28
CAHOKIA*       LGT RAIN  36  34  92 E7        29.80F FOG     WCI  30
$$

ILZ064>066-069>071-074>076-080>082-084>086-088>090-092>094-011400-
SOUTH-CENTRAL ILLINOIS

CITY           SKY/WX    TMP DP  RH WIND       PRES   REMARKS
CARBONDALE     RAIN      40  35  83 S8        29.81F
MARION         LGT RAIN  41  37  87 S12       29.82F
MT. VERNON     CLOUDY    36  30  80 E6        29.84F WCI  31
$$

ILZ067-068-072-073-078-083-087-091-011400-
SOUTHEAST ILLINOIS

CITY           SKY/WX    TMP DP  RH WIND       PRES   REMARKS
LAWRENCEVILLE  RAIN      36  30  79 E5        29.91F WCI  32
$$

ABBREVIATIONS USED IN REMARKS
   TC - TEMPERATURE IN CELSIUS
  WCI - WIND CHILL INDEX
   HX - HEAT INDEX
  VSB - VISIBILITY
$$



USA.gov is the U.S. government's official web portal to all federal, state and local government web resources and services.